TimeEDT,TemperatureF,Dew PointF,Humidity,Sea Level PressureIn,VisibilityMPH,Wind Direction,Wind SpeedMPH,Gust SpeedMPH,PrecipitationIn,Events,Conditions,WindDirDegrees,DateUTC
12:51 AM,72.0,71.1,97,29.89,6.0,NNE,6.9,-,N/A,,Mostly Cloudy,20,2013-08-29 04:51:00
1:51 AM,72.0,70.0,93,29.89,6.0,NNE,6.9,-,N/A,,Mostly Cloudy,20,2013-08-29 05:51:00
2:51 AM,72.0,70.0,93,29.90,6.0,NNE,8.1,-,N/A,,Overcast,20,2013-08-29 06:51:00
3:51 AM,71.1,70.0,96,29.91,7.0,NNE,6.9,-,N/A,,Overcast,20,2013-08-29 07:51:00
4:51 AM,72.0,70.0,93,29.92,6.0,NNE,5.8,-,N/A,,Mostly Cloudy,30,2013-08-29 08:51:00
5:09 AM,71.6,69.8,94,29.92,6.0,North,5.8,-,N/A,,Mostly Cloudy,10,2013-08-29 09:09:00
5:51 AM,73.0,69.1,87,29.94,7.0,East,5.8,-,N/A,,Overcast,90,2013-08-29 09:51:00
6:39 AM,73.4,68.0,83,29.95,7.0,NE,5.8,-,N/A,,Overcast,40,2013-08-29 10:39:00
6:51 AM,73.0,68.0,84,29.95,7.0,NNE,5.8,-,N/A,,Overcast,30,2013-08-29 10:51:00
7:51 AM,73.0,68.0,84,29.97,7.0,East,4.6,-,0.00,,Overcast,100,2013-08-29 11:51:00
8:51 AM,72.0,68.0,87,29.99,6.0,ESE,6.9,-,0.00,,Light Drizzle,110,2013-08-29 12:51:00
9:51 AM,72.0,68.0,87,30.00,5.0,Variable,6.9,-,0.00,Rain,Light Rain,0,2013-08-29 13:51:00
10:18 AM,71.6,69.8,94,30.00,5.0,ENE,5.8,-,0.00,,Overcast,60,2013-08-29 14:18:00
10:51 AM,73.9,69.1,85,30.00,6.0,NE,3.5,-,0.00,,Haze,40,2013-08-29 14:51:00
11:38 AM,77.0,66.2,69,30.01,10.0,East,6.9,-,N/A,,Mostly Cloudy,80,2013-08-29 15:38:00
11:51 AM,78.1,66.9,68,30.01,10.0,NE,6.9,-,N/A,,Mostly Cloudy,40,2013-08-29 15:51:00
12:51 PM,79.0,66.0,64,30.00,10.0,NE,9.2,-,N/A,,Mostly Cloudy,40,2013-08-29 16:51:00
1:51 PM,79.0,64.9,62,30.00,10.0,NE,8.1,-,N/A,,Mostly Cloudy,50,2013-08-29 17:51:00
2:51 PM,79.0,64.9,62,29.99,10.0,ENE,6.9,-,N/A,,Mostly Cloudy,60,2013-08-29 18:51:00
3:51 PM,80.1,64.9,60,29.99,10.0,East,6.9,-,N/A,,Mostly Cloudy,80,2013-08-29 19:51:00
4:51 PM,79.0,64.9,62,29.99,10.0,ESE,8.1,-,N/A,,Mostly Cloudy,110,2013-08-29 20:51:00
5:51 PM,75.9,64.9,69,30.00,10.0,SSE,5.8,-,N/A,,Mostly Cloudy,150,2013-08-29 21:51:00
6:51 PM,75.0,64.9,71,30.01,10.0,SSE,5.8,-,N/A,,Mostly Cloudy,150,2013-08-29 22:51:00
7:51 PM,73.0,64.9,76,30.02,10.0,South,4.6,-,N/A,,Mostly Cloudy,170,2013-08-29 23:51:00
8:51 PM,73.0,64.9,76,30.03,10.0,SE,4.6,-,N/A,,Mostly Cloudy,140,2013-08-30 00:51:00
9:51 PM,72.0,66.0,81,30.03,10.0,South,5.8,-,N/A,,Mostly Cloudy,170,2013-08-30 01:51:00
10:51 PM,71.1,66.9,87,30.03,10.0,SSE,6.9,-,N/A,,Mostly Cloudy,160,2013-08-30 02:51:00
11:11 PM,71.6,66.2,83,30.03,10.0,SSE,6.9,-,N/A,,Mostly Cloudy,160,2013-08-30 03:11:00
11:51 PM,71.1,66.0,84,30.04,10.0,SSE,8.1,-,N/A,,Mostly Cloudy,150,2013-08-30 03:51:00